Flag for Bahamas Weather past 2 weeks in Nassau, Bahamas

Now
82 °F

Passing clouds.


Feels Like: 89 °F
Forecast: 80 / 89 °F
Wind: No wind

Location: Nassau Airport

Current Time: Sep 3, 2015 at 9:56:06 PM

Latest Report: Sep 3, 2015 at 9:00 PM


Visibility: N/A

Pressure: 29.96 "Hg

Humidity: 79%

Dew point: 75 °F

Location of NassauLocation

Historic Weather in Nassau — Graph

°F

Nassau temperature yesterday

Maximum temperature yesterday: 88 °F (at 1:00 PM)
Minimum temperature yesterday: 81 °F (at 5:00 AM)
Average temperature yesterday: 84 °F

Past Weeks' High & Low Weather Summary

 TemperatureHumidityPressure
High99 °F (Aug 27, 3:19 PM)100% (Aug 25, 11:00 AM)30.12 "Hg (Aug 25, 11:00 AM)
Low75 °F (Aug 26, 11:00 AM)42% (Aug 27, 3:19 PM)29.89 "Hg (Aug 24, 5:00 AM)
Average84 °F77%30.00 "Hg
* Reported Aug 19 9:00 PM — Sep 3 9:00 PM, Nassau, Weather by CustomWeather, © 2015

Note: Actual official high and low records may vary slightly from our data, if they occured in-between our weather recording intervals... More about our weather records

Advertising

Nassau weather history for previous 24 hours

 ConditionsComfort  
Time TempWeatherWind HumidityBarometerVisibility
9:00 PM
Thu, Sep 3
82 °FPassing clouds.No wind79%29.96 "HgN/A
8:00 PM84 °FScattered showers. Broken clouds.7 mph74%29.94 "HgN/A
6:00 PM84 °FScattered showers. Broken clouds.5 mph74%29.94 "HgN/A
5:00 PM88 °FBroken clouds.7 mph70%29.95 "HgN/A
4:00 PM86 °FBroken clouds.5 mph70%29.96 "HgN/A
3:00 PM82 °FScattered showers. Broken clouds.2 mph79%29.97 "HgN/A
2:00 PM90 °FScattered clouds.8 mph71%N/AN/A
1:00 PM88 °FBroken clouds.6 mph70%29.98 "HgN/A
12:00 PM86 °FThunderstorms. Broken clouds.3 mph70%30.00 "HgN/A
11:00 AM86 °FBroken clouds.3 mph75%30.01 "HgN/A
10:00 AM88 °FBroken clouds.2 mph66%30.01 "HgN/A
9:00 AM86 °FPartly sunny.2 mph66%29.99 "HgN/A
8:00 AM82 °FPartly sunny.No wind84%29.98 "HgN/A
7:00 AM79 °FPassing clouds.No wind84%29.97 "HgN/A
6:00 AM81 °FWarm.No wind84%29.97 "HgN/A
5:00 AM81 °FPassing clouds.No wind79%29.97 "HgN/A
4:00 AM81 °FPassing clouds.No wind79%29.97 "HgN/A
3:00 AM81 °FPassing clouds.3 mph84%29.98 "HgN/A
12:00 AM82 °FPassing clouds.No wind79%30.03 "HgN/A
11:00 PM
Wed, Sep 2
82 °FPassing clouds.1 mph79%30.03 "HgN/A
10:00 PM84 °FPassing clouds.2 mph79%30.02 "HgN/A
9:00 PM84 °FPassing clouds.5 mph74%30.01 "HgN/A
Weather by CustomWeather, © 2015

See weather overviewHow to use our weather pages